Location: Unspecified
(56.0000°N, 10.0000°E)
Time: 19:30:31
(UTC+01:00)

ISS - Visible Passes

Search period start: 24 March 2023 00:00
Search period end: 03 April 2023 01:00
Orbit: 414 x 422 km, 51.6° (Epoch: 24 March)

Date Brightness Start Highest point End Pass type
(mag) Time Alt. Az. Time Alt. Az. Time Alt. Az.
24 Mar -3.0 20:18:29 10° WSW 20:21:38 38° S 20:22:45 28° SE visible
24 Mar -0.9 21:55:16 10° WSW 21:55:42 12° WSW 21:55:42 12° WSW visible
25 Mar -3.0 19:30:39 10° WSW 19:33:50 39° S 19:36:46 11° ESE visible
25 Mar -2.2 21:07:17 10° WSW 21:09:42 26° SW 21:09:42 26° SW visible
26 Mar -2.6 21:19:20 10° WSW 21:22:21 31° SSW 21:23:41 23° SSE visible
27 Mar -2.7 20:31:24 10° WSW 20:34:30 35° S 20:37:36 10° ESE visible
27 Mar -1.7 22:08:23 10° WSW 22:10:34 17° SSW 22:10:34 17° SSW visible
28 Mar -2.0 21:20:12 10° WSW 21:22:52 22° SSW 21:24:31 16° SSE visible
29 Mar -2.2 20:32:05 10° WSW 20:34:59 27° SSW 20:37:51 10° SE visible
30 Mar -1.2 21:21:23 10° WSW 21:23:06 13° SSW 21:24:50 10° S visible
31 Mar -1.5 20:32:53 10° WSW 20:35:13 18° SSW 20:37:33 10° SSE visible
